User: anonymous   Login
Location: Unspecified
(0.0000°N, 0.0000°E)
Time: 01:51:53
(UTC+00:00)
Language:

PROBA 2 - Orbit

View from above orbital plane
View from above orbital plane
View from above satellite
View from above satellite

Ground track
Ground track

The orbit data is extracted from the following two-line orbital elements,

1 36037U 09059B   15181.77841615  .00000054  00000-0  24099-4 0  9994
2 36037 098.2750 014.6697 0013895 029.8335 033.0292 14.52856030299969
Epoch (UTC): 30 June 2015 18:40:55
Eccentricity: 0.0013895
inclination: 98.2750°
perigee height: 706 km
apogee height: 726 km
right ascension of ascending node: 14.6697°
argument of perigee: 29.8335°
revolutions per day: 14.52856030
mean anomaly at epoch: 33.0292°
orbit number at epoch: 29996

The dashed part of the orbit path shows where the satellite is in the earth's shadow,  

DLR